| time (UTC) | temp C | wind direction | speed KPH | gust KPH | rain 1hr cm | rain 24hr cm | rain mn cm | humidity % | barometer mb |
| 20260505065622 | 20 | 157 | 8.0 | 22.5 | 0.00 | 0.00 | 0.00 | 80 | 1008.6 |
| 20260505065118 | 20 | 158 | 14.5 | 17.7 | 0.00 | 0.00 | 0.00 | 80 | 1008.7 |
| 20260505064615 | 20 | 168 | 9.7 | 14.5 | 0.00 | 0.00 | 0.00 | 80 | 1008.8 |
| 20260505064114 | 20 | 180 | 11.3 | 17.7 | 0.00 | 0.00 | 0.00 | 79 | 1008.8 |
| 20260505063611 | 20 | 174 | 14.5 | 20.9 | 0.00 | 0.00 | 0.00 | 79 | 1008.7 |
| 20260505063106 | 20 | 174 | 9.7 | 16.1 | 0.00 | 0.00 | 0.00 | 79 | 1008.9 |
| 20260505062603 | 20 | 163 | 8.0 | 16.1 | 0.00 | 0.00 | 0.00 | 79 | 1009.0 |
| 20260505062100 | 20 | 159 | 6.4 | 16.1 | 0.00 | 0.00 | 0.00 | 79 | 1009.0 |
| 20260505061558 | 20 | 157 | 17.7 | 17.7 | 0.00 | 0.00 | 0.00 | 79 | 1009.0 |
| 20260505061056 | 20 | 153 | 14.5 | 16.1 | 0.00 | 0.00 | 0.00 | 78 | 1009.0 |
| 20260505060553 | 20 | 176 | 9.7 | 14.5 | 0.00 | 0.00 | 0.00 | 78 | 1009.1 |
| 20260505060049 | 21 | 145 | 6.4 | 14.5 | 0.00 | 0.00 | 0.00 | 78 | 1009.2 |
| 20260505055544 | 21 | 165 | 12.9 | 14.5 | 0.00 | 0.00 | 0.00 | 77 | 1009.2 |
| 20260505055042 | 21 | 160 | 12.9 | 17.7 | 0.00 | 0.00 | 0.00 | 77 | 1009.3 |
| 20260505054539 | 21 | 159 | 6.4 | 17.7 | 0.00 | 0.00 | 0.00 | 77 | 1009.4 |
| 20260505054037 | 21 | 180 | 14.5 | 22.5 | 0.00 | 0.00 | 0.00 | 77 | 1009.2 |
| 20260505053534 | 21 | 170 | 9.7 | 14.5 | 0.00 | 0.00 | 0.00 | 77 | 1009.2 |
| 20260505053031 | 21 | 176 | 9.7 | 17.7 | 0.00 | 0.00 | 0.00 | 76 | 1009.4 |
| 20260505052527 | 21 | 172 | 14.5 | 20.9 | 0.00 | 0.00 | 0.00 | 76 | 1009.3 |
| 20260505052025 | 21 | 159 | 6.4 | 14.5 | 0.00 | 0.00 | 0.00 | 76 | 1009.4 |
| 20260505051522 | 21 | 154 | 8.0 | 20.9 | 0.00 | 0.00 | 0.00 | 75 | 1009.5 |
| 20260505051020 | 21 | 191 | 9.7 | 12.9 | 0.00 | 0.00 | 0.00 | 75 | 1009.4 |
| 20260505050518 | 21 | 166 | 9.7 | 17.7 | 0.00 | 0.00 | 0.00 | 75 | 1009.2 |
| 20260505041445 | 21 | 156 | 11.3 | 11.3 | 0.00 | 0.00 | 0.00 | 72 | 1009.4 |
| 20260505040943 | 21 | 178 | 6.4 | 20.9 | 0.00 | 0.00 | 0.00 | 71 | 1009.5 |
| 20260505040440 | 21 | 177 | 11.3 | 19.3 | 0.00 | 0.00 | 0.00 | 71 | 1009.5 |
| 20260505035937 | 21 | 162 | 16.1 | 19.3 | 0.00 | 0.00 | 0.00 | 70 | 1009.6 |
| 20260505035433 | 21 | 158 | 12.9 | 14.5 | 0.00 | 0.00 | 0.00 | 70 | 1009.5 |
| 20260505034930 | 22 | 157 | 17.7 | 19.3 | 0.00 | 0.00 | 0.00 | 69 | 1009.6 |
| 20260505034426 | 21 | 158 | 9.7 | 16.1 | 0.00 | 0.00 | 0.00 | 69 | 1009.6 |
| 20260505033924 | 21 | 172 | 4.8 | 16.1 | 0.00 | 0.00 | 0.00 | 69 | 1009.5 |
| 20260505033420 | 22 | 135 | 14.5 | 20.9 | 0.00 | 0.00 | 0.00 | 68 | 1009.4 |
| 20260505032919 | 21 | 151 | 12.9 | 20.9 | 0.00 | 0.00 | 0.00 | 67 | 1009.4 |
| 20260505032415 | 21 | 153 | 6.4 | 17.7 | 0.00 | 0.00 | 0.00 | 67 | 1009.4 |
| 20260505031912 | 21 | 144 | 12.9 | 14.5 | 0.00 | 0.00 | 0.00 | 67 | 1009.6 |
| 20260505031409 | 21 | 182 | 8.0 | 14.5 | 0.00 | 0.00 | 0.00 | 66 | 1009.5 |
| 20260505030906 | 21 | 145 | 9.7 | 9.7 | 0.00 | 0.00 | 0.00 | 66 | 1009.4 |
| 20260505030401 | 21 | 160 | 6.4 | 9.7 | 0.00 | 0.00 | 0.00 | 67 | 1009.6 |
| 20260505025857 | 21 | 155 | 6.4 | 12.9 | 0.00 | 0.00 | 0.00 | 66 | 1009.6 |
| 20260505025355 | 21 | 161 | 9.7 | 9.7 | 0.00 | 0.00 | 0.00 | 66 | 1009.5 |
| 20260505024854 | 21 | 176 | 6.4 | 11.3 | 0.00 | 0.00 | 0.00 | 65 | 1009.4 |
| 20260505024351 | 21 | 160 | 11.3 | 11.3 | 0.00 | 0.00 | 0.00 | 65 | 1009.4 |
| 20260505023848 | 21 | 165 | 4.8 | 9.7 | 0.00 | 0.00 | 0.00 | 65 | 1009.4 |
| 20260505023345 | 21 | 163 | 4.8 | 9.7 | 0.00 | 0.00 | 0.00 | 65 | 1009.3 |
| 20260505022842 | 21 | 165 | 4.8 | 8.0 | 0.00 | 0.00 | 0.00 | 65 | 1009.4 |
| 20260505022339 | 21 | 184 | 3.2 | 12.9 | 0.00 | 0.00 | 0.00 | 65 | 1009.5 |
| 20260505021836 | 21 | 181 | 4.8 | 6.4 | 0.00 | 0.00 | 0.00 | 64 | 1009.3 |
| 20260505021332 | 21 | 168 | 4.8 | 6.4 | 0.00 | 0.00 | 0.00 | 64 | 1009.3 |
| 20260505020828 | 22 | 167 | 8.0 | 8.0 | 0.00 | 0.00 | 0.00 | 63 | 1009.1 |
| 20260505020324 | 22 | 175 | 8.0 | 8.0 | 0.00 | 0.00 | 0.00 | 63 | 1009.2 |
| 20260505015821 | 22 | 164 | 4.8 | 8.0 | 0.00 | 0.00 | 0.00 | 62 | 1009.0 |
| 20260505015318 | 22 | 150 | 4.8 | 9.7 | 0.00 | 0.00 | 0.00 | 62 | 1009.0 |
| 20260505014816 | 22 | 164 | 3.2 | 4.8 | 0.00 | 0.00 | 0.00 | 63 | 1009.0 |
| 20260505014312 | 22 | 165 | 4.8 | 6.4 | 0.00 | 0.00 | 0.00 | 62 | 1009.2 |
| 20260505013809 | 22 | 158 | 3.2 | 6.4 | 0.00 | 0.00 | 0.00 | 62 | 1009.1 |
| 20260505013306 | 22 | 161 | 9.7 | 9.7 | 0.00 | 0.00 | 0.00 | 61 | 1009.0 |
| 20260505012805 | 22 | 172 | 4.8 | 8.0 | 0.00 | 0.00 | 0.00 | 61 | 1009.2 |
| 20260505012304 | 22 | 167 | 4.8 | 6.4 | 0.00 | 0.00 | 0.00 | 60 | 1009.0 |
| 20260505011757 | 22 | 179 | 6.4 | 8.0 | 0.00 | 0.00 | 0.00 | 59 | 1009.0 |
| 20260505011255 | 22 | 151 | 3.2 | 6.4 | 0.00 | 0.00 | 0.00 | 59 | 1008.9 |
| 20260505010750 | 23 | 169 | 3.2 | 9.7 | 0.00 | 0.00 | 0.00 | 58 | 1008.7 |
| 20260505010247 | 23 | 169 | 4.8 | 9.7 | 0.00 | 0.00 | 0.00 | 58 | 1008.9 |
| 20260505005743 | 23 | 180 | 6.4 | 6.4 | 0.00 | 0.00 | 0.00 | 58 | 1008.8 |
| 20260505005240 | 23 | 160 | 4.8 | 9.7 | 0.00 | 0.00 | 0.00 | 57 | 1008.8 |
| 20260505004737 | 23 | 169 | 4.8 | 8.0 | 0.00 | 0.00 | 0.00 | 56 | 1008.6 |
| 20260505004233 | 23 | 183 | 3.2 | 8.0 | 0.00 | 0.00 | 0.00 | 55 | 1008.9 |
| 20260505003731 | 23 | 175 | 3.2 | 8.0 | 0.00 | 0.00 | 0.00 | 56 | 1008.9 |
| 20260505003229 | 23 | 169 | 4.8 | 8.0 | 0.00 | 0.00 | 0.00 | 55 | 1009.0 |
| 20260505002725 | 23 | 164 | 9.7 | 12.9 | 0.00 | 0.00 | 0.00 | 54 | 1009.2 |
| 20260505002222 | 24 | 165 | 9.7 | 9.7 | 0.00 | 0.00 | 0.00 | 54 | 1009.2 |
| 20260505001720 | 24 | 161 | 4.8 | 14.5 | 0.00 | 0.00 | 0.00 | 53 | 1009.2 |
| 20260505001217 | 24 | 138 | 9.7 | 17.7 | 0.00 | 0.00 | 0.00 | 51 | 1009.1 |
| 20260505000714 | 25 | 182 | 6.4 | 14.5 | 0.00 | 0.00 | 0.00 | 52 | 1009.4 |
| 20260505000212 | 25 | 158 | 4.8 | 12.9 | 0.00 | 0.00 | 0.00 | 52 | 1009.5 |
| 20260504235708 | 25 | 144 | 11.3 | 17.7 | 0.00 | 0.00 | 0.00 | 51 | 1009.4 |
| 20260504235204 | 25 | 170 | 14.5 | 20.9 | 0.00 | 0.00 | 0.00 | 49 | 1009.4 |
| 20260504234702 | 25 | 171 | 6.4 | 14.5 | 0.00 | 0.00 | 0.00 | 49 | 1009.4 |
| 20260504234159 | 26 | 154 | 14.5 | 22.5 | 0.00 | 0.00 | 0.00 | 48 | 1009.6 |
| 20260504233654 | 26 | 175 | 11.3 | 17.7 | 0.00 | 0.00 | 0.00 | 48 | 1009.5 |
| 20260504233150 | 26 | 163 | 9.7 | 17.7 | 0.00 | 0.00 | 0.00 | 48 | 1009.5 |
| 20260504232648 | 26 | 166 | 11.3 | 14.5 | 0.00 | 0.00 | 0.00 | 48 | 1009.7 |
| 20260504232145 | 26 | 167 | 16.1 | 24.1 | 0.00 | 0.00 | 0.00 | 47 | 1009.8 |
| 20260504231642 | 26 | 152 | 19.3 | 24.1 | 0.00 | 0.00 | 0.00 | 47 | 1009.8 |
| 20260504231138 | 26 | 184 | 8.0 | 16.1 | 0.00 | 0.00 | 0.00 | 48 | 1009.7 |
| 20260504230634 | 26 | 173 | 12.9 | 19.3 | 0.00 | 0.00 | 0.00 | 47 | 1010.0 |
| 20260504230133 | 26 | 186 | 14.5 | 20.9 | 0.00 | 0.00 | 0.00 | 46 | 1010.0 |
| 20260504225631 | 26 | 162 | 17.7 | 20.9 | 0.00 | 0.00 | 0.00 | 46 | 1010.1 |
| 20260504225127 | 26 | 182 | 14.5 | 25.7 | 0.00 | 0.00 | 0.00 | 46 | 1010.3 |
| 20260504224624 | 26 | 151 | 11.3 | 20.9 | 0.00 | 0.00 | 0.00 | 46 | 1010.3 |
| 20260504224121 | 26 | 140 | 11.3 | 19.3 | 0.00 | 0.00 | 0.00 | 45 | 1010.2 |
| 20260504223618 | 26 | 167 | 16.1 | 19.3 | 0.00 | 0.00 | 0.00 | 46 | 1010.3 |
| 20260504223114 | 26 | 155 | 12.9 | 24.1 | 0.00 | 0.00 | 0.00 | 46 | 1010.7 |
| 20260504222611 | 26 | 139 | 29.0 | 29.0 | 0.00 | 0.00 | 0.00 | 45 | 1010.4 |
| 20260504222108 | 26 | 160 | 14.5 | 20.9 | 0.00 | 0.00 | 0.00 | 45 | 1010.4 |
| 20260504221605 | 26 | 152 | 20.9 | 24.1 | 0.00 | 0.00 | 0.00 | 46 | 1010.4 |
| 20260504221102 | 26 | 162 | 17.7 | 30.6 | 0.00 | 0.00 | 0.00 | 47 | 1010.4 |
| 20260504220558 | 26 | 162 | 8.0 | 12.9 | 0.00 | 0.00 | 0.00 | 48 | 1010.6 |
| 20260504220055 | 26 | 201 | 12.9 | 20.9 | 0.00 | 0.00 | 0.00 | 47 | 1010.6 |
| 20260504215552 | 27 | 164 | 11.3 | 20.9 | 0.00 | 0.00 | 0.00 | 47 | 1010.8 |
| 20260504215049 | 26 | 152 | 14.5 | 16.1 | 0.00 | 0.00 | 0.00 | 47 | 1010.8 |
| 20260504214545 | 27 | 167 | 12.9 | 20.9 | 0.00 | 0.00 | 0.00 | 46 | 1010.8 |
| 20260504214042 | 26 | 199 | 6.4 | 9.7 | 0.00 | 0.00 | 0.00 | 49 | 1010.8 |
| 20260504213538 | 26 | 166 | 11.3 | 27.4 | 0.00 | 0.00 | 0.00 | 49 | 1010.8 |
| 20260504213035 | 26 | 190 | 14.5 | 22.5 | 0.00 | 0.00 | 0.00 | 47 | 1011.0 |
| 20260504212531 | 26 | 163 | 17.7 | 20.9 | 0.00 | 0.00 | 0.00 | 48 | 1011.1 |
| 20260504212029 | 26 | 180 | 14.5 | 20.9 | 0.00 | 0.00 | 0.00 | 47 | 1011.1 |
| 20260504211525 | 26 | 172 | 11.3 | 20.9 | 0.00 | 0.00 | 0.00 | 48 | 1011.3 |
| 20260504211023 | 26 | 182 | 14.5 | 20.9 | 0.00 | 0.00 | 0.00 | 48 | 1011.5 |
| 20260504210519 | 26 | 196 | 11.3 | 19.3 | 0.00 | 0.00 | 0.00 | 47 | 1011.6 |
| 20260504210016 | 26 | 193 | 9.7 | 22.5 | 0.00 | 0.00 | 0.00 | 47 | 1011.6 |
| 20260504205514 | 26 | 163 | 24.1 | 30.6 | 0.00 | 0.00 | 0.00 | 46 | 1011.9 |
| 20260504205012 | 26 | 158 | 9.7 | 19.3 | 0.00 | 0.00 | 0.00 | 48 | 1011.8 |
| 20260504204510 | 26 | 155 | 16.1 | 22.5 | 0.00 | 0.00 | 0.00 | 48 | 1012.0 |
| 20260504204008 | 26 | 134 | 20.9 | 30.6 | 0.00 | 0.00 | 0.00 | 48 | 1011.9 |
| 20260504203506 | 26 | 153 | 14.5 | 22.5 | 0.00 | 0.00 | 0.00 | 47 | 1012.0 |
| 20260504203002 | 26 | 142 | 17.7 | 22.5 | 0.00 | 0.00 | 0.00 | 47 | 1012.2 |
| 20260504202458 | 26 | 180 | 11.3 | 19.3 | 0.00 | 0.00 | 0.00 | 46 | 1012.4 |
| 20260504201955 | 26 | 207 | 9.7 | 22.5 | 0.00 | 0.00 | 0.00 | 50 | 1012.5 |
| 20260504201453 | 26 | 157 | 16.1 | 20.9 | 0.00 | 0.00 | 0.00 | 48 | 1012.5 |
| 20260504200950 | 26 | 186 | 11.3 | 25.7 | 0.00 | 0.00 | 0.00 | 47 | 1012.6 |
| 20260504200447 | 26 | 171 | 14.5 | 17.7 | 0.00 | 0.00 | 0.00 | 51 | 1012.8 |
| 20260504195943 | 26 | 135 | 20.9 | 20.9 | 0.00 | 0.00 | 0.00 | 47 | 1012.9 |
| 20260504195439 | 25 | 151 | 8.0 | 22.5 | 0.00 | 0.00 | 0.00 | 48 | 1013.0 |
| 20260504194936 | 26 | 153 | 16.1 | 22.5 | 0.00 | 0.00 | 0.00 | 49 | 1013.2 |
| 20260504194432 | 25 | 137 | 11.3 | 17.7 | 0.00 | 0.00 | 0.00 | 47 | 1013.1 |
| 20260504193928 | 25 | 167 | 8.0 | 19.3 | 0.00 | 0.00 | 0.00 | 48 | 1013.4 |
| 20260504193425 | 25 | 160 | 14.5 | 24.1 | 0.00 | 0.00 | 0.00 | 47 | 1013.3 |
| 20260504192924 | 25 | 204 | 12.9 | 20.9 | 0.00 | 0.00 | 0.00 | 46 | 1013.4 |
| 20260504192421 | 25 | 215 | 11.3 | 20.9 | 0.00 | 0.00 | 0.00 | 49 | 1013.5 |
| 20260504191920 | 25 | 161 | 17.7 | 22.5 | 0.00 | 0.00 | 0.00 | 47 | 1013.6 |
| 20260504191418 | 25 | 186 | 9.7 | 25.7 | 0.00 | 0.00 | 0.00 | 48 | 1013.6 |
| 20260504190912 | 25 | 181 | 8.0 | 24.1 | 0.00 | 0.00 | 0.00 | 49 | 1013.6 |
| 20260504190408 | 25 | 180 | 14.5 | 27.4 | 0.00 | 0.00 | 0.00 | 47 | 1013.7 |
| 20260504185905 | 25 | 156 | 9.7 | 24.1 | 0.00 | 0.00 | 0.00 | 49 | 1013.6 |
| 20260504185403 | 25 | 151 | 12.9 | 20.9 | 0.00 | 0.00 | 0.00 | 48 | 1013.9 |
| 20260504184858 | 25 | 146 | 17.7 | 35.4 | 0.00 | 0.00 | 0.00 | 48 | 1014.0 |
| 20260504184354 | 24 | 144 | 9.7 | 22.5 | 0.00 | 0.00 | 0.00 | 49 | 1014.2 |
| 20260504183850 | 25 | 151 | 11.3 | 19.3 | 0.00 | 0.00 | 0.00 | 48 | 1014.1 |
| 20260504183348 | 25 | 188 | 6.4 | 19.3 | 0.00 | 0.00 | 0.00 | 48 | 1014.2 |
| 20260504182845 | 24 | 157 | 16.1 | 27.4 | 0.00 | 0.00 | 0.00 | 50 | 1014.2 |
| 20260504182343 | 24 | 156 | 14.5 | 24.1 | 0.00 | 0.00 | 0.00 | 47 | 1014.3 |
| 20260504181839 | 24 | 186 | 11.3 | 30.6 | 0.00 | 0.00 | 0.00 | 48 | 1014.5 |
| 20260504181337 | 25 | 148 | 20.9 | 24.1 | 0.00 | 0.00 | 0.00 | 48 | 1014.6 |
| 20260504180836 | 24 | 184 | 17.7 | 17.7 | 0.00 | 0.00 | 0.00 | 48 | 1014.6 |
| 20260504180334 | 24 | 163 | 9.7 | 25.7 | 0.00 | 0.00 | 0.00 | 49 | 1014.6 |
| 20260504175832 | 24 | 183 | 14.5 | 20.9 | 0.00 | 0.00 | 0.00 | 49 | 1014.7 |
| 20260504175328 | 23 | 173 | 12.9 | 24.1 | 0.00 | 0.00 | 0.00 | 49 | 1014.9 |
| 20260504174826 | 23 | 146 | 12.9 | 33.8 | 0.00 | 0.00 | 0.00 | 51 | 1014.9 |
| 20260504174324 | 23 | 171 | 9.7 | 25.7 | 0.00 | 0.00 | 0.00 | 52 | 1014.9 |
| 20260504173820 | 23 | 150 | 14.5 | 30.6 | 0.00 | 0.00 | 0.00 | 50 | 1015.1 |
| 20260504173317 | 23 | 166 | 12.9 | 24.1 | 0.00 | 0.00 | 0.00 | 50 | 1015.2 |
| 20260504172814 | 23 | 171 | 16.1 | 25.7 | 0.00 | 0.00 | 0.00 | 51 | 1015.2 |
| 20260504172311 | 23 | 163 | 16.1 | 24.1 | 0.00 | 0.00 | 0.00 | 48 | 1015.4 |
| 20260504171807 | 23 | 168 | 6.4 | 20.9 | 0.00 | 0.00 | 0.00 | 52 | 1015.4 |
| 20260504171304 | 23 | 128 | 17.7 | 30.6 | 0.00 | 0.00 | 0.00 | 50 | 1015.4 |
| 20260504170801 | 23 | 189 | 12.9 | 22.5 | 0.00 | 0.00 | 0.00 | 50 | 1015.4 |
| 20260504170258 | 23 | 156 | 9.7 | 30.6 | 0.00 | 0.00 | 0.00 | 49 | 1015.5 |
| 20260504160216 | 22 | 175 | 8.0 | 20.9 | 0.00 | 0.00 | 0.00 | 56 | 1016.0 |
| 20260504151144 | 21 | 198 | 14.5 | 30.6 | 0.00 | 0.00 | 0.00 | 60 | 1016.4 |
| 20260504150641 | 20 | 155 | 17.7 | 27.4 | 0.00 | 0.00 | 0.00 | 59 | 1016.4 |
| 20260504150138 | 20 | 161 | 12.9 | 24.1 | 0.00 | 0.00 | 0.00 | 62 | 1016.2 |
| 20260504141107 | 18 | 188 | 12.9 | 16.1 | 0.00 | 0.00 | 0.00 | 66 | 1016.8 |
| 20260504140604 | 18 | 185 | 6.4 | 12.9 | 0.00 | 0.00 | 0.00 | 69 | 1016.5 |
| 20260504130528 | 16 | 169 | 4.8 | 11.3 | 0.00 | 0.00 | 0.00 | 79 | 1016.3 |
| 20260504110415 | 12 | 138 | 3.2 | 4.8 | 0.00 | 0.00 | 0.00 | 87 | 1016.1 |
| 20260504100332 | 13 | 160 | 4.8 | 6.4 | 0.00 | 0.00 | 0.00 | 82 | 1016.3 |
| 20260504081726 | 12 | 131 | 3.2 | 3.2 | 0.00 | 0.00 | 0.00 | 90 | 1016.3 |
| 20260504081222 | 12 | 121 | 3.2 | 3.2 | 0.00 | 0.00 | 0.00 | 91 | 1016.1 |
| 20260504080718 | 12 | 125 | 3.2 | 6.4 | 0.00 | 0.00 | 0.00 | 94 | 1016.3 |
| 20260504080215 | 11 | 147 | 1.6 | 3.2 | 0.00 | 0.00 | 0.00 | 93 | 1016.2 |
| 20260504070142 | 12 | 136 | 3.2 | 3.2 | 0.00 | 0.00 | 0.00 | 93 | 1017.1 |